Location: Unspecified
(48.7170°N, 0.0000°E)
Time: 04:29:00
(UTC+00:00)

ISS - Pass Details

Date: 01 June 2019
Orbit: 407 x 419 km, 51.6° (Epoch: 26 June)

Event Time Altitude Azimuth Distance (km) Brightness Sun altitude
Rises 22:00:15 0° 285° (WNW) 2,359 0.7 -14.5°
Reaches altitude 10° 22:02:51 10° 264° (W) 1,494 -0.7 -14.7°
Maximum altitude 22:05:04 17° 222° (SW) 1,150 -1.8 -14.8°
Enters shadow 22:05:36 16° 210° (SSW) 1,172 -1.8 -14.9°
